Location: Constantia
(34.0183°S, 18.4411°E)
Time: 15:35:15
(UTC+00:00)

Cosmos 2056 Rocket - Pass Details

Date: 17 February 2020
Orbit: 742 x 800 km, 74.0° (Epoch: 08 April)

Event Time Altitude Azimuth Distance (km) Brightness Sun altitude
Exits shadow 02:21:48 62° 289° (WNW) 850 3.4 -23.5°
Maximum altitude 02:22:20 67° 252° (WSW) 819 3.4 -23.4°
Drops below altitude 10° 02:27:30 10° 169° (S) 2,288 6.5 -22.5°
Sets 02:29:54 0° 166° (SSE) 3,216 7.4 -22.1°
